HULIANWANG DIGUI-16

导读

HULIANWANG DIGUI-16(“互联网地轨16号”)是中国于2025年2月11日发射的低轨卫星,隶属于中国低轨互联网星座体系。卫星运行于近地轨道,主要面向全球提供高速互联网接入服务,可填补地面通信网络在偏远地区、海洋空域的覆盖盲区,支持机载通信、海上联网、应急通信等多场景应用,进一步完善中国低轨卫星互联网的星座组网布局,助力天地一体化信息网络建设。

基本信息
目录编号:
62976
目录名称:
HULIANWANG DIGUI-16
国际标识:
2025-030F
轨道中心:
EARTH
卫星名称:
HULIANWANG DIGUI-16
卫星全名:
HULIANWANG DIGUI-16
卫星状态:
在轨 (已飞行486 天)
发射日期:
2025-02-11 UTC
国别 :
中国 (CN)
星等 :
--
轨道信息
数据来源 国际轨道数据 AOE轨道数据
星历时间 2026-06-12T13:33:46+0800
14小时前
查看轨道信息
2026-06-08T01:00:00+0800
5天前
查看轨道信息
半长轴 7527.454km 7527.456km
偏心率 0.0000993 0.0000879
轨道倾角 50.005° 50.007°
近地点辐角 160.495° 135.203°
升交点赤经 253.390° 269.614°
平近点角 199.596° 164.221°
近地点 1148.569km 1148.657km
远地点 1150.065km 1149.981km
周期 108.326分钟 108.326分钟
每日圈数 13.293233 13.293228
详细信息
使用方式:
暂无
2D轨道图
3D轨道图
轨道高度分析图
轨道倾角分析图
轨道综合分析图
查看轨道综合分析图